| time (UTC) | temp C | wind direction | speed KPH | gust KPH | rain 1hr cm | rain 24hr cm | rain mn cm | humidity % | barometer mb |
| 20260503005051 | 8 | 248 | 0.0 | 0.0 | 0.00 | 25.37 | 0.00 | 74 | 1008.8 |
| 20260503004551 | 8 | 248 | 0.0 | 0.0 | 0.00 | 25.37 | 0.00 | 74 | 1008.8 |
| 20260503004051 | 8 | 248 | 0.0 | 0.0 | 0.00 | 25.37 | 0.00 | 74 | 1008.9 |
| 20260503003552 | 8 | 248 | 0.0 | 0.0 | 0.00 | 25.37 | 0.00 | 73 | 1009.0 |
| 20260503003051 | 8 | 248 | 0.0 | 0.0 | 0.00 | 25.37 | 0.00 | 73 | 1009.1 |
| 20260503002053 | 8 | 248 | 0.0 | 0.0 | 0.00 | 25.37 | 0.00 | 73 | 1009.0 |
| 20260503001551 | 8 | 248 | 0.0 | 0.0 | 0.00 | 25.37 | 0.00 | 73 | 1009.0 |
| 20260503001051 | 8 | 248 | 0.0 | 0.0 | 0.00 | 25.37 | 0.00 | 73 | 1009.0 |
| 20260503000551 | 8 | 248 | 0.0 | 0.0 | 0.00 | 25.37 | 0.00 | 73 | 1009.0 |
| 20260503000051 | 8 | 248 | 0.0 | 0.0 | 0.00 | 25.37 | 0.00 | 73 | 1009.2 |
| 20260502235551 | 8 | 248 | 0.0 | 0.0 | 0.00 | 25.37 | 0.00 | 73 | 1009.1 |
| 20260502234553 | 9 | 248 | 0.0 | 0.0 | 0.00 | 25.37 | 0.00 | 73 | 1009.2 |
| 20260502234054 | 9 | 248 | 0.0 | 0.0 | 0.00 | 25.37 | 0.00 | 72 | 1009.3 |
| 20260502233553 | 9 | 248 | 0.0 | 0.0 | 0.00 | 25.37 | 0.00 | 72 | 1009.4 |
| 20260502232553 | 9 | 248 | 0.0 | 0.0 | 0.00 | 25.37 | 0.00 | 72 | 1009.3 |
| 20260502232052 | 9 | 248 | 0.0 | 0.0 | 0.00 | 25.37 | 0.00 | 71 | 1009.3 |
| 20260502231553 | 10 | 248 | 0.0 | 0.0 | 0.00 | 25.37 | 0.00 | 71 | 1009.3 |
| 20260502230552 | 10 | 248 | 0.0 | 0.0 | 0.00 | 25.37 | 0.00 | 70 | 1009.4 |
| 20260502230053 | 10 | 248 | 0.0 | 0.0 | 0.00 | 25.37 | 0.00 | 70 | 1009.3 |
| 20260502225552 | 10 | 248 | 0.0 | 0.0 | 0.00 | 25.37 | 0.00 | 70 | 1009.4 |
| 20260502225053 | 10 | 248 | 0.0 | 0.0 | 0.00 | 25.37 | 0.00 | 70 | 1009.5 |
| 20260502224053 | 10 | 248 | 0.0 | 0.0 | 0.00 | 25.37 | 0.00 | 70 | 1009.4 |
| 20260502222553 | 10 | 248 | 0.0 | 0.0 | 0.00 | 25.37 | 0.00 | 69 | 1009.5 |
| 20260502222053 | 10 | 248 | 0.0 | 0.0 | 0.00 | 25.37 | 0.00 | 69 | 1009.4 |
| 20260502221553 | 10 | 248 | 0.0 | 0.0 | 0.00 | 25.37 | 0.00 | 69 | 1009.6 |
| 20260502221053 | 11 | 248 | 0.0 | 0.0 | 0.00 | 25.37 | 0.00 | 69 | 1009.5 |
| 20260502220553 | 11 | 248 | 0.0 | 0.0 | 0.05 | 25.37 | 0.00 | 68 | 1009.5 |
| 20260502220053 | 11 | 248 | 0.0 | 0.0 | 0.15 | 25.37 | 0.00 | 67 | 1009.2 |
| 20260502215554 | 11 | 248 | 0.0 | 0.0 | 0.25 | 25.37 | 0.00 | 67 | 1009.4 |
| 20260502215053 | 11 | 248 | 0.0 | 0.0 | 0.25 | 25.37 | 0.00 | 67 | 1009.5 |
| 20260502214552 | 11 | 248 | 0.0 | 0.0 | 0.25 | 25.37 | 0.00 | 67 | 1009.4 |
| 20260502213625 | 11 | 248 | 0.0 | 0.0 | 0.66 | 25.37 | 0.00 | 66 | 1009.2 |
| 20260502213553 | 11 | 248 | 0.0 | 0.0 | 0.66 | 25.37 | 0.00 | 66 | 1009.2 |
| 20260502213053 | 11 | 248 | 0.0 | 0.0 | 0.66 | 25.37 | 0.00 | 65 | 1009.4 |
| 20260502212052 | 11 | 248 | 0.0 | 0.0 | 0.66 | 25.37 | 0.00 | 65 | 1009.2 |
| 20260502211553 | 11 | 248 | 0.0 | 0.0 | 0.66 | 25.37 | 0.00 | 65 | 1009.2 |
| 20260502211056 | 12 | 248 | 70.8 | 70.8 | 0.61 | 25.37 | 0.00 | 65 | 1009.3 |
| 20260502210553 | 12 | 248 | 70.8 | 70.8 | 0.61 | 25.37 | 0.00 | 65 | 1009.2 |
| 20260502205555 | 12 | 248 | 0.0 | 0.0 | 0.56 | 25.37 | 0.00 | 64 | 1009.1 |
| 20260502205053 | 12 | 248 | 0.0 | 0.0 | 0.56 | 25.37 | 0.00 | 63 | 1009.2 |
| 20260502204552 | 12 | 359 | 0.0 | 0.0 | 0.56 | 25.37 | 0.00 | 63 | 1009.3 |
| 20260502204052 | 12 | 359 | 0.0 | 0.0 | 0.56 | 25.37 | 0.00 | 63 | 1009.1 |
| 20260502203552 | 12 | 248 | 70.8 | 70.8 | 13.36 | 25.37 | 0.00 | 62 | 1009.0 |
| 20260502203052 | 13 | 248 | 69.2 | 69.2 | 25.37 | 25.37 | 0.00 | 61 | 1009.1 |
| 20260502202554 | 13 | 248 | 69.2 | 69.2 | 25.37 | 25.37 | 0.00 | 61 | 1009.1 |
| 20260502201553 | 13 | 248 | 0.0 | 0.0 | 25.37 | 25.37 | 0.00 | 61 | 1009.1 |
| 20260502200554 | 13 | 359 | 0.0 | 0.0 | 25.37 | 25.37 | 0.00 | 61 | 1009.0 |
| 20260502200053 | 100 | 359 | 0.0 | 0.0 | 25.37 | 25.37 | 0.00 | 100 | 1009.0 |
| 20260502195053 | 13 | 248 | 0.0 | 0.0 | 25.37 | 25.37 | 0.00 | 59 | 1008.9 |
| 20260502194556 | 13 | 248 | 0.0 | 0.0 | 25.37 | 25.37 | 0.00 | 59 | 1008.9 |
| 20260502194054 | 13 | 248 | 0.0 | 0.0 | 25.37 | 25.37 | 0.00 | 59 | 1009.0 |
| 20260502193553 | 13 | 248 | 0.0 | 0.0 | 25.37 | 25.37 | 0.00 | 59 | 1008.7 |
| 20260502193053 | 14 | 359 | 0.0 | 0.0 | 25.37 | 25.37 | 0.00 | 58 | 1008.8 |
| 20260502192555 | 14 | 359 | 0.0 | 0.0 | 13.21 | 25.37 | 0.00 | 57 | 1007.1 |
| 20260502192052 | 14 | 359 | 0.0 | 0.0 | 0.30 | 25.37 | 0.00 | 57 | 1008.9 |
| 20260502191554 | 15 | 248 | 0.0 | 0.0 | 0.30 | 25.37 | 0.00 | 56 | 1007.0 |
| 20260502191055 | 15 | 248 | 0.0 | 0.0 | 0.30 | 25.37 | 0.00 | 56 | 1008.6 |
| 20260502190552 | 15 | 248 | 0.0 | 0.0 | 0.30 | 25.37 | 0.00 | 56 | 1008.5 |
| 20260502190052 | 15 | 248 | 0.0 | 0.0 | 0.30 | 25.37 | 0.00 | 55 | 1008.5 |
| 20260502185552 | 15 | 248 | 0.0 | 0.0 | 0.30 | 25.37 | 0.00 | 55 | 1008.4 |
| 20260502185054 | 15 | 248 | 0.0 | 0.0 | 0.30 | 25.37 | 0.00 | 55 | 1008.4 |
| 20260502184553 | 15 | 248 | 0.0 | 0.0 | 0.30 | 25.37 | 0.00 | 55 | 1008.4 |
| 20260502184052 | 15 | 248 | 0.0 | 0.0 | 0.30 | 25.37 | 0.00 | 54 | 1008.4 |
| 20260502183053 | 16 | 248 | 0.0 | 0.0 | 0.30 | 25.37 | 0.00 | 53 | 1008.1 |
| 20260502182553 | 16 | 248 | 0.0 | 0.0 | 0.00 | 25.37 | 0.00 | 51 | 1008.2 |
| 20260502182054 | 16 | 248 | 61.2 | 61.2 | 0.00 | 25.37 | 0.00 | 51 | 1008.1 |
| 20260502181553 | 17 | 248 | 53.1 | 53.1 | 0.15 | 25.37 | 0.00 | 51 | 1007.9 |
| 20260502180554 | 17 | 248 | 0.0 | 0.0 | 0.15 | 25.37 | 0.00 | 50 | 1007.9 |
| 20260502164054 | 22 | 359 | 0.0 | 0.0 | 0.41 | 25.37 | 0.00 | 39 | 1007.9 |
| 20260502163555 | 22 | 359 | 0.0 | 0.0 | 0.51 | 25.37 | 0.00 | 39 | 1007.8 |
| 20260502163054 | 22 | 248 | 64.4 | 64.4 | 0.56 | 25.37 | 0.00 | 39 | 1007.9 |
| 20260502162554 | 22 | 248 | 69.2 | 69.2 | 0.61 | 25.37 | 0.00 | 38 | 1007.9 |
| 20260502162058 | 22 | 248 | 69.2 | 69.2 | 0.61 | 25.37 | 0.00 | 38 | 1008.0 |
| 20260502161555 | 22 | 248 | 0.0 | 0.0 | 0.56 | 25.37 | 0.00 | 39 | 1008.0 |
| 20260502160554 | 22 | 248 | 0.0 | 0.0 | 0.41 | 25.37 | 0.00 | 39 | 1008.4 |
| 20260502152135 | 23 | 248 | 0.0 | 0.0 | 0.00 | 25.37 | 0.00 | 38 | 1008.6 |
| 20260502152055 | 23 | 248 | 0.0 | 0.0 | 0.00 | 25.37 | 0.00 | 38 | 1008.6 |
| 20260502151554 | 22 | 248 | 0.0 | 0.0 | 0.00 | 25.37 | 0.00 | 38 | 1008.8 |
| 20260502151054 | 22 | 248 | 70.8 | 70.8 | 0.05 | 25.37 | 0.00 | 39 | 1008.7 |
| 20260502150554 | 22 | 248 | 70.8 | 70.8 | 0.05 | 25.37 | 0.00 | 39 | 1008.7 |
| 20260502123555 | 23 | 248 | 0.0 | 0.0 | 25.37 | 25.37 | 0.00 | 40 | 1010.2 |
| 20260502121554 | 22 | 359 | 0.0 | 0.0 | 25.37 | 25.37 | 0.00 | 41 | 1007.8 |
| 20260502121055 | 22 | 248 | 0.0 | 0.0 | 25.37 | 25.37 | 0.00 | 41 | 1009.1 |
| 20260502120555 | 22 | 248 | 0.0 | 0.0 | 25.37 | 25.37 | 0.00 | 40 | 1009.0 |
| 20260502115557 | 22 | 248 | 0.0 | 0.0 | 13.21 | 25.37 | 0.00 | 41 | 1010.6 |
| 20260502115055 | 22 | 248 | 0.0 | 0.0 | 13.21 | 25.37 | 0.00 | 42 | 1010.6 |
| 20260502114555 | 22 | 248 | 0.0 | 0.0 | 13.21 | 25.37 | 0.00 | 41 | 1010.9 |
| 20260502114055 | 22 | 248 | 0.0 | 0.0 | 13.21 | 25.37 | 0.00 | 41 | 1010.8 |
| 20260502113057 | 22 | 248 | 0.0 | 0.0 | 13.21 | 25.37 | 0.00 | 42 | 1011.0 |
| 20260502112557 | 22 | 248 | 0.0 | 0.0 | 13.21 | 25.37 | 0.00 | 43 | 1011.1 |
| 20260502112055 | 22 | 338 | 0.0 | 0.0 | 0.00 | 25.37 | 0.00 | 43 | 1011.2 |
| 20260502111555 | 22 | 338 | 0.0 | 0.0 | 25.37 | 25.37 | 0.00 | 42 | 1011.2 |
| 20260502111055 | 22 | 338 | 0.0 | 0.0 | 25.37 | 25.37 | 0.00 | 42 | 1011.3 |
| 20260502110555 | 22 | 338 | 0.0 | 0.0 | 25.37 | 25.37 | 0.00 | 42 | 1011.4 |
| 20260502110056 | 22 | 338 | 0.0 | 0.0 | 25.37 | 25.37 | 0.00 | 43 | 1011.5 |
| 20260502105556 | 22 | 338 | 0.0 | 0.0 | 25.37 | 25.37 | 0.00 | 42 | 1011.4 |
| 20260502104055 | 22 | 248 | 0.0 | 0.0 | 25.37 | 25.37 | 0.00 | 43 | 1011.9 |
| 20260502103558 | 22 | 248 | 0.0 | 0.0 | 25.37 | 25.37 | 0.00 | 43 | 1012.0 |
| 20260502103055 | 22 | 248 | 0.0 | 0.0 | 25.37 | 25.37 | 0.00 | 43 | 1011.9 |
| 20260502102556 | 22 | 248 | 0.0 | 0.0 | 25.37 | 25.37 | 0.00 | 44 | 1012.1 |
| 20260502101555 | 21 | 248 | 0.0 | 0.0 | 25.37 | 25.37 | 0.00 | 44 | 1010.9 |
| 20260502100556 | 21 | 270 | 0.0 | 0.0 | 25.37 | 25.37 | 0.00 | 47 | 1012.4 |
| 20260502091056 | 20 | 248 | 0.0 | 0.0 | 0.00 | 25.37 | 0.00 | 53 | 1013.3 |
| 20260502090557 | 20 | 248 | 0.0 | 0.0 | 0.00 | 25.37 | 0.00 | 54 | 1013.4 |
| 20260502090134 | 19 | 248 | 0.0 | 0.0 | 0.00 | 25.37 | 0.00 | 54 | 1013.5 |
| 20260502071055 | 15 | 248 | 0.0 | 0.0 | 0.00 | 25.37 | 0.00 | 61 | 1014.6 |
| 20260502070556 | 15 | 248 | 0.0 | 0.0 | 0.00 | 25.37 | 0.00 | 61 | 1014.7 |
| 20260502070059 | 15 | 248 | 0.0 | 0.0 | 1.65 | 25.37 | 0.00 | 61 | 1014.7 |
| 20260502065556 | 15 | 270 | 0.0 | 0.0 | 1.65 | 25.37 | 0.00 | 61 | 1014.9 |
| 20260502064556 | 15 | 270 | 0.0 | 0.0 | 1.65 | 25.37 | 0.00 | 62 | 1014.8 |
| 20260502064056 | 15 | 270 | 0.0 | 0.0 | 1.65 | 25.37 | 0.00 | 62 | 1014.9 |
| 20260502063555 | 15 | 248 | 0.0 | 0.0 | 1.65 | 25.37 | 0.00 | 63 | 1015.0 |
| 20260502063057 | 15 | 248 | 0.0 | 0.0 | 1.65 | 25.37 | 0.00 | 63 | 1015.1 |
| 20260502061557 | 15 | 248 | 0.0 | 0.0 | 1.65 | 25.37 | 0.00 | 65 | 1015.0 |
| 20260502061056 | 15 | 248 | 0.0 | 0.0 | 1.65 | 25.37 | 0.00 | 65 | 1015.1 |
| 20260502060559 | 15 | 248 | 0.0 | 0.0 | 1.65 | 25.37 | 0.00 | 66 | 1015.2 |
| 20260502034557 | 3 | 248 | 0.0 | 0.0 | 0.00 | 25.37 | 0.00 | 80 | 1015.1 |
| 20260502034055 | 3 | 248 | 0.0 | 0.0 | 0.00 | 25.37 | 0.00 | 80 | 1015.1 |
| 20260502033557 | 3 | 248 | 0.0 | 0.0 | 0.00 | 25.37 | 0.00 | 80 | 1015.1 |
| 20260502030556 | 4 | 248 | 0.0 | 0.0 | 0.00 | 25.37 | 0.00 | 79 | 1015.1 |
| 20260502030056 | 4 | 248 | 0.0 | 0.0 | 0.00 | 25.37 | 0.00 | 79 | 1015.0 |
| 20260502025556 | 4 | 248 | 0.0 | 0.0 | 0.00 | 25.37 | 0.00 | 79 | 1015.2 |
| 20260502024556 | 4 | 248 | 0.0 | 0.0 | 0.00 | 25.37 | 0.00 | 79 | 1015.1 |
| 20260502024056 | 4 | 248 | 0.0 | 0.0 | 0.00 | 25.37 | 0.00 | 78 | 1015.1 |
| 20260502023556 | 4 | 248 | 0.0 | 0.0 | 0.00 | 25.37 | 0.00 | 78 | 1015.1 |
| 20260502023056 | 4 | 248 | 0.0 | 0.0 | 0.00 | 25.37 | 0.00 | 78 | 1015.2 |
| 20260502022557 | 4 | 248 | 0.0 | 0.0 | 0.00 | 25.37 | 0.00 | 78 | 1015.2 |
| 20260502022056 | 4 | 248 | 0.0 | 0.0 | 0.00 | 25.37 | 0.00 | 78 | 1015.2 |
| 20260502021556 | 4 | 248 | 0.0 | 0.0 | 0.00 | 25.37 | 0.00 | 78 | 1015.1 |
| 20260502020058 | 5 | 248 | 0.0 | 0.0 | 0.00 | 25.37 | 0.00 | 77 | 1015.2 |
| 20260502015556 | 5 | 248 | 0.0 | 0.0 | 0.00 | 25.37 | 0.00 | 77 | 1015.0 |
| 20260502014056 | 5 | 248 | 0.0 | 0.0 | 0.00 | 25.37 | 0.00 | 77 | 1015.2 |
| 20260502013556 | 5 | 248 | 0.0 | 0.0 | 0.00 | 25.37 | 0.00 | 77 | 1015.0 |
| 20260502012556 | 5 | 248 | 0.0 | 0.0 | 0.00 | 25.37 | 0.00 | 76 | 1015.2 |
| 20260502011556 | 5 | 248 | 0.0 | 0.0 | 0.00 | 25.37 | 0.00 | 75 | 1015.3 |
| 20260502011056 | 5 | 359 | 0.0 | 0.0 | 0.00 | 25.37 | 0.00 | 75 | 1015.2 |
| 20260502010556 | 5 | 359 | 0.0 | 0.0 | 0.00 | 25.37 | 0.00 | 75 | 1015.1 |
| 20260502010056 | 5 | 248 | 0.0 | 0.0 | 0.00 | 25.37 | 0.00 | 75 | 1015.1 |
| 20260502005556 | 5 | 248 | 0.0 | 0.0 | 0.00 | 25.37 | 0.00 | 74 | 1015.2 |